Theta_e
355 351 355 349 326 324 318 321 329 324 321 332 335 332 330 333 328 321 348 349 350 352 357 359 364 364 365 364 366 366 364 365 367 365 366 366 365 364 364 363 362 362 362 361 360 360 359 359 358
345 348 350 338 321 313 317 327 324 324 326 334 335 334 331 328 339 340 342 349 351 354 356 358 364 365 364 365 365 366 365 363 366 367 365 364 363 363 363 362 363 363 361 361 360 359 358 358 357
350 350 337 327 322 313 318 328 325 331 334 333 330 336 333 333 341 342 345 348 352 353 354 358 366 366 364 364 364 366 366 363 361 363 364 363 362 362 362 362 362 361 360 360 359 359 358 357 356
343 343 339 321 319 325 326 331 331 331 334 337 336 328 338 345 343 345 348 349 348 351 357 364 368 365 366 364 364 364 365 360 358 359 358 360 360 359 359 360 361 360 359 359 359 358 357 357 356
341 335 322 319 318 325 330 333 332 330 332 334 334 328 334 344 347 347 347 348 349 352 358 362 368 367 368 366 364 364 364 358 357 358 354 356 356 356 356 356 358 357 356 356 357 359 359 357 357
331 330 318 314 320 327 331 334 333 331 334 336 335 333 334 345 345 346 348 348 354 353 358 360 367 367 367 365 364 363 362 360 358 355 351 354 352 353 356 355 356 356 357 358 357 359 359 358 358
327 324 318 320 322 324 329 334 331 332 332 333 337 329 339 343 346 348 348 352 353 353 354 357 359 361 365 367 364 364 363 363 361 358 355 356 350 350 350 354 354 355 356 357 357 358 358 359 358
330 325 318 321 321 323 332 334 337 335 333 342 342 331 330 339 347 348 349 350 349 350 351 353 356 357 358 359 365 364 362 362 361 358 358 357 355 353 353 352 353 355 357 359 358 358 359 359 358
334 318 315 319 322 325 332 332 338 340 335 340 339 337 341 343 347 346 346 348 347 350 351 353 355 356 355 357 360 364 363 361 358 357 358 354 347 347 351 351 352 357 359 359 358 359 359 359 359
324 315 320 324 326 328 332 333 334 333 333 334 333 337 335 345 344 342 342 342 345 347 349 352 354 354 355 358 357 354 356 354 352 353 350 348 347 347 353 353 358 359 359 358 359 361 359 358 352
322 317 323 326 327 333 335 331 334 331 328 331 327 327 333 338 342 342 343 345 346 348 350 352 352 352 354 356 356 355 356 352 353 353 349 351 352 350 351 350 352 349 359 352 356 353 353 352 351
317 325 324 328 330 331 331 332 331 332 333 339 335 331 328 336 340 343 342 345 346 347 349 353 354 353 353 352 355 354 352 352 352 352 351 351 349 346 346 348 349 351 349 350 349 348 351 350 352
318 322 324 327 327 326 329 331 332 331 337 340 338 334 336 340 341 343 345 346 348 347 349 350 354 350 353 351 352 351 350 351 351 353 351 353 349 347 348 349 350 350 349 349 345 347 350 348 349
322 322 320 322 322 325 325 328 327 331 335 340 339 337 339 340 339 341 342 344 346 345 348 350 351 353 352 351 351 352 352 353 351 354 351 351 349 349 348 349 349 350 349 350 348 347 348 346 348
319 315 317 318 319 320 323 322 323 328 330 332 335 336 339 336 339 337 342 344 345 346 349 350 350 353 351 352 351 350 352 354 352 351 352 350 351 350 350 350 349 349 350 344 345 349 348 349 349
314 315 312 317 318 321 317 309 324 328 329 327 331 332 335 334 335 338 343 343 345 346 347 350 352 353 354 353 350 350 351 350 352 353 352 353 352 351 351 350 348 352 349 348 348 344 345 348 346
311 307 311 315 319 317 313 307 325 329 328 325 329 330 333 333 334 337 342 344 345 346 347 348 349 350 354 353 348 348 350 350 351 353 352 352 351 353 352 352 350 353 350 348 347 343 343 346 346
305 306 311 308 313 314 312 310 315 324 328 325 327 329 331 332 333 337 339 343 344 347 348 348 349 348 351 351 351 348 344 347 351 350 351 353 349 350 346 351 351 350 351 347 346 345 348 345 345
307 305 305 309 315 313 310 309 312 316 323 323 322 325 330 334 336 339 338 342 343 347 347 346 347 348 351 349 348 343 336 345 347 350 349 351 352 353 351 350 352 351 349 347 349 348 345 343 345
306 304 304 310 315 310 308 308 312 315 315 319 323 321 330 332 334 337 337 339 343 345 347 347 349 350 349 349 348 347 342 345 345 348 347 349 351 350 350 349 348 350 345 348 349 348 344 342 342
303 301 304 305 311 311 308 305 309 318 318 318 320 324 324 332 333 335 336 338 343 344 346 348 347 349 350 350 349 350 350 347 344 344 344 347 349 350 349 350 348 348 349 347 346 348 345 339 341
300 308 309 309 303 298 306 296 305 311 313 316 315 317 319 332 335 336 336 337 340 344 348 350 347 349 350 353 349 345 344 340 344 344 344 345 348 347 350 351 351 350 351 347 347 351 349 343 338
303 310 309 309 303 299 303 298 305 311 308 313 317 320 319 332 336 336 337 338 343 346 346 351 350 352 351 350 348 345 343 344 346 348 343 343 344 346 349 350 350 349 345 347 348 350 348 347 342
311 307 306 304 300 294 300 302 304 306 310 312 321 322 324 325 335 338 339 340 342 345 349 349 353 351 353 352 349 347 344 343 343 345 343 343 344 346 350 350 346 348 348 347 347 348 350 347 346
306 299 292 293 293 292 305 303 304 309 313 315 320 322 324 326 334 336 338 338 340 342 348 350 352 350 352 351 351 350 347 346 343 345 344 343 345 346 347 349 347 349 352 346 341 347 352 350 348
304 300 294 289 291 297 302 299 304 314 314 316 322 324 326 323 329 336 338 339 340 343 346 350 351 351 353 352 351 350 350 345 345 346 347 345 346 346 350 351 350 351 351 351 346 351 351 348 345
303 298 303 296 296 294 301 307 311 315 316 319 320 325 327 325 330 335 339 340 342 342 347 350 352 352 354 352 352 349 348 343 342 345 347 347 348 349 350 352 351 354 352 354 352 353 346 338 339
305 308 298 297 291 290 297 302 301 308 311 318 322 324 326 329 331 332 327 340 342 342 349 352 353 353 354 354 351 350 348 346 344 345 346 346 346 347 349 351 352 354 353 353 352 348 346 333 331
306 303 303 301 300 293 292 298 308 316 320 321 323 326 326 327 330 335 333 340 341 346 351 352 353 353 353 352 349 349 351 348 346 344 343 345 347 349 350 350 351 351 352 353 351 350 352 343 342
307 301 301 301 297 301 300 297 318 317 319 323 326 327 330 330 332 334 338 343 340 344 348 352 354 354 354 352 350 350 350 351 347 344 343 347 348 347 345 342 347 350 352 349 349 347 348 348 347
Wind_Speed
4 4 4 13 7 1 0 2 4 9 10 17 14 10 7 5 3 5 19 16 21 15 14 13 14 14 15 14 15 16 16 17 17 17 16 16 16 15 14 13 12 12 11 11 10 8 8 7 5
4 7 5 9 3 5 5 1 6 8 12 20 17 18 18 14 15 17 17 23 21 17 13 11 14 15 16 15 15 15 17 17 16 17 16 15 15 13 13 12 11 10 9 8 7 6 6 5 4
5 6 5 5 5 4 3 6 13 16 14 18 14 12 8 10 17 17 21 23 20 16 14 13 16 16 17 16 15 15 16 17 15 16 15 15 13 12 12 10 10 9 7 6 6 4 3 3 3
3 1 4 3 6 5 5 1 12 12 12 12 9 11 10 23 22 18 22 23 19 16 15 16 17 18 18 18 17 16 16 17 14 14 15 13 12 10 8 9 7 8 7 6 5 3 4 4 3
4 2 2 1 6 5 5 6 13 8 8 13 12 11 16 16 21 24 24 19 20 16 14 14 17 17 17 18 17 16 16 17 15 14 13 13 12 8 7 5 6 6 6 5 6 6 5 5 5
2 3 2 4 6 9 8 4 13 10 13 17 16 15 7 11 22 21 19 19 21 18 14 12 16 16 16 17 17 17 17 17 16 16 14 13 12 10 7 4 4 7 7 7 7 7 6 6 6
6 3 4 2 3 4 7 6 7 8 4 7 19 11 5 3 17 19 17 22 18 18 15 10 10 14 17 15 17 17 17 17 16 14 15 14 12 12 12 7 4 5 7 8 7 7 7 7 6
6 5 5 6 1 4 4 9 8 6 6 17 17 10 4 6 21 15 15 17 19 15 14 11 8 6 6 8 16 17 16 16 16 16 16 15 13 11 12 14 9 9 9 9 9 8 8 8 7
3 4 3 2 3 3 5 4 4 9 20 22 7 10 4 9 18 19 12 6 14 14 14 11 11 8 6 6 9 14 16 15 16 15 17 13 3 5 8 12 15 13 11 11 10 10 9 9 8
4 5 1 6 8 6 6 4 4 4 12 16 14 16 16 13 14 17 17 14 15 15 15 13 13 12 9 9 6 6 7 5 5 7 6 4 5 5 7 12 18 15 12 11 11 10 10 8 3
4 4 5 7 3 3 2 5 9 12 2 6 20 18 16 12 7 20 18 20 21 18 11 12 14 13 12 7 6 4 4 3 4 7 6 5 4 4 4 3 3 3 9 3 6 5 3 4 4
6 2 7 4 4 3 2 4 5 7 3 18 24 21 15 15 16 16 17 16 9 13 12 14 9 9 6 6 7 7 6 5 4 5 7 5 4 4 4 3 4 4 3 5 4 3 4 6 4
8 2 7 8 6 6 3 3 2 2 12 21 21 20 18 14 7 13 18 18 18 15 11 11 10 7 7 10 7 7 6 4 6 6 6 5 4 4 4 4 4 4 3 4 3 3 4 6 3
2 7 4 7 5 3 6 1 6 6 11 20 22 20 18 16 11 15 18 16 18 13 13 14 15 13 9 8 7 5 5 5 6 6 6 7 4 4 5 4 4 4 3 3 3 4 5 4 3
4 8 8 5 5 4 5 3 4 9 4 11 19 20 22 14 17 19 20 18 16 14 15 15 15 13 10 10 6 5 5 4 5 6 7 6 5 5 6 4 3 3 4 2 1 4 3 5 4
7 7 3 7 8 8 8 6 10 9 5 10 14 12 14 11 13 16 21 18 16 17 18 15 13 14 10 7 6 5 5 4 5 4 6 7 6 6 5 3 3 3 3 4 4 1 3 3 3
8 3 5 8 8 4 4 10 15 10 10 11 13 13 14 9 9 13 21 20 18 19 18 16 14 13 10 8 5 5 6 3 4 3 4 6 6 5 4 3 4 4 5 3 0 2 3 4 5
6 1 4 6 3 5 1 10 8 14 15 14 12 12 13 12 6 12 15 17 18 20 19 15 11 10 7 4 5 4 2 1 2 3 4 6 3 5 4 2 3 3 3 4 3 5 3 4 5
5 6 6 8 9 3 3 8 12 10 16 11 9 10 14 23 18 17 17 16 17 17 17 15 10 9 8 5 4 3 4 2 1 4 6 6 3 4 3 1 3 4 3 4 4 4 5 1 1
7 2 8 8 9 4 7 11 15 12 8 10 13 10 16 18 15 14 15 11 16 18 18 15 13 13 10 8 4 4 4 3 3 4 4 4 4 2 3 4 4 5 3 4 3 4 2 1 2
8 6 8 8 5 7 7 10 9 3 8 7 9 12 10 17 18 17 13 14 18 18 15 15 14 13 11 11 5 4 4 3 4 3 3 4 4 1 6 6 5 4 4 4 3 3 4 3 1
5 11 11 8 7 5 3 11 14 6 8 7 7 8 9 16 17 19 17 10 19 17 17 16 16 15 13 10 9 7 7 4 4 5 4 5 5 6 6 7 6 5 3 4 4 3 2 5 3
7 8 7 7 5 5 13 1 9 7 3 6 6 6 2 19 22 22 21 18 16 19 15 15 18 15 10 9 10 7 5 3 3 5 7 4 2 5 8 7 6 6 4 4 4 3 3 2 3
7 5 9 7 1 3 11 3 8 3 8 3 6 6 6 12 21 22 19 20 16 15 15 14 14 13 9 9 8 9 8 6 5 7 6 5 5 6 7 7 7 6 6 5 4 4 3 3 4
7 3 5 6 2 6 10 4 6 12 5 6 9 5 6 9 19 18 20 18 17 18 18 15 14 12 9 9 9 8 8 8 8 8 7 8 6 6 6 6 6 5 5 6 4 3 3 2 2
4 6 6 6 4 5 4 7 4 3 6 7 10 9 6 4 9 19 18 17 18 19 20 18 15 12 11 9 9 7 7 4 5 6 8 7 5 6 8 7 7 7 5 5 5 2 3 2 2
5 5 7 4 6 3 5 7 6 6 8 10 11 14 13 4 8 16 17 15 15 17 18 20 17 14 12 11 8 7 7 8 6 6 6 6 5 6 8 8 8 6 6 6 6 4 4 3 3
7 7 7 5 3 6 7 3 3 2 5 12 16 13 12 13 13 22 8 18 16 16 18 18 16 16 14 11 9 7 9 9 8 7 7 8 5 6 8 8 7 7 7 6 6 4 3 3 3
7 5 4 3 5 3 3 5 2 12 15 17 17 14 11 10 11 10 19 19 15 17 17 17 16 14 12 9 9 9 9 9 9 9 10 5 4 9 10 9 8 7 7 7 6 4 5 6 6
7 4 5 5 7 5 3 5 13 18 15 14 14 15 10 10 13 15 16 11 5 16 14 17 15 15 13 9 10 9 9 9 10 10 10 7 6 7 8 7 6 6 7 6 7 7 6 7 7
Wind_Direction
239 221 110 40 355 283 342 51 55 70 64 81 74 82 111 90 108 164 142 143 133 137 147 150 148 139 131 133 128 128 131 125 119 112 108 113 112 115 115 116 120 123 122 119 119 118 110 104 110
289 291 126 149 174 354 59 129 120 109 105 96 83 88 83 80 86 122 134 134 134 138 144 148 147 146 140 145 141 141 137 135 132 130 124 122 120 121 120 127 129 132 132 127 126 126 121 118 127
272 266 110 158 168 155 231 23 61 65 88 110 96 84 87 107 121 138 131 134 130 140 140 151 149 148 147 150 152 151 144 137 135 128 130 131 129 137 136 138 132 134 135 142 149 145 145 152 160
278 226 70 114 91 56 79 182 74 53 45 98 94 75 97 141 141 137 135 129 138 138 131 148 148 148 152 155 157 156 152 150 146 140 140 135 133 117 140 146 153 149 147 174 198 206 200 209 209
234 68 49 145 48 71 112 59 93 83 83 85 77 88 109 134 129 129 133 139 129 127 131 143 146 148 148 149 156 157 158 158 158 157 151 148 137 130 145 160 166 158 169 203 202 214 218 224 224
253 86 36 1 14 7 60 94 69 88 91 91 58 40 31 127 130 135 141 139 128 130 135 145 146 146 147 149 154 162 167 163 167 172 175 176 165 153 162 164 205 189 203 213 217 222 222 232 234
91 80 34 151 16 348 42 58 87 89 68 106 125 122 203 253 137 136 141 125 129 132 135 141 148 152 156 151 154 162 170 173 178 178 180 186 189 211 197 198 212 235 227 225 222 224 223 227 230
122 91 13 320 325 58 39 45 96 104 92 115 136 146 251 241 142 123 135 131 129 138 139 149 146 139 146 158 162 165 170 177 179 179 182 184 192 208 226 219 237 239 235 227 225 218 216 217 220
82 75 291 156 345 62 146 87 18 119 92 68 20 103 328 311 130 129 128 99 138 138 145 152 152 154 157 162 169 168 172 175 176 179 182 187 185 220 207 223 237 237 231 225 220 218 218 223 235
96 108 13 55 36 359 67 154 196 126 122 119 97 111 165 229 144 142 150 154 152 149 159 158 161 167 165 168 166 170 173 171 162 163 182 159 190 212 212 211 229 224 214 216 216 216 223 233 240
137 96 62 71 22 356 300 339 127 184 92 169 154 166 196 196 233 145 160 157 159 159 156 171 170 167 168 155 163 174 182 177 176 169 167 171 208 161 227 237 215 202 206 215 217 218 207 215 232
112 252 114 110 156 241 95 306 113 118 120 137 154 174 183 194 197 155 161 160 160 161 170 161 158 152 159 153 175 173 184 182 166 173 165 178 203 184 192 190 184 194 203 195 234 199 208 231 236
57 321 141 166 174 140 161 85 34 347 118 131 147 165 186 209 215 174 163 167 162 175 164 147 138 168 170 169 187 180 183 165 170 175 183 175 190 176 166 183 176 202 191 197 214 273 194 249 209
335 271 254 147 126 168 112 224 93 299 135 144 159 174 192 204 171 163 175 168 168 166 160 152 168 178 175 177 187 160 179 161 164 183 178 201 179 172 164 178 184 180 175 235 194 234 225 244 277
275 279 254 150 161 139 142 313 239 204 216 162 166 180 192 175 176 175 171 167 167 164 161 165 176 167 183 174 166 135 151 192 169 185 173 192 179 167 143 170 206 197 169 145 238 266 208 192 148
241 289 42 213 181 190 140 247 255 221 203 223 169 175 169 177 159 180 164 164 164 154 164 171 178 177 160 155 150 144 170 189 178 176 166 171 153 163 161 158 202 217 132 183 198 154 313 258 194
258 105 357 296 180 142 87 293 220 213 212 221 177 179 169 165 169 147 162 158 165 154 161 172 177 172 161 156 149 158 153 166 178 162 161 168 162 157 154 178 231 219 173 187 204 301 159 250 234
30 84 203 254 203 117 127 269 283 205 208 208 180 184 162 145 209 163 155 165 160 157 162 165 165 160 154 135 125 102 109 221 135 151 174 157 164 187 168 210 217 218 206 158 208 220 202 232 222
52 2 312 306 300 155 222 272 273 258 192 188 194 183 170 161 191 169 158 158 159 158 158 163 164 163 147 144 146 136 169 165 185 114 99 119 107 217 177 233 236 211 200 214 204 220 209 253 346
330 273 289 289 285 53 313 283 276 264 196 172 191 198 184 173 172 161 155 146 161 165 167 160 163 162 161 151 175 147 152 142 127 109 130 126 159 296 196 229 235 216 194 218 244 209 115 90 53
318 289 260 242 307 349 318 304 299 322 134 170 188 199 174 176 162 157 155 150 162 164 170 166 165 162 167 168 154 111 117 87 113 146 143 186 172 272 256 218 225 220 181 198 212 234 137 154 202
260 282 314 328 27 297 297 292 305 202 162 181 225 215 197 170 161 158 159 162 159 168 160 164 164 167 180 158 169 160 164 167 178 159 164 175 173 211 270 230 211 203 196 182 201 209 173 128 217
265 315 320 316 303 353 295 331 277 126 134 183 177 95 314 157 160 167 163 171 162 157 163 154 164 171 169 148 157 152 152 177 142 125 164 167 198 239 251 222 200 166 192 199 198 207 185 204 150
320 1 300 286 47 338 275 104 356 275 185 170 111 114 36 138 163 167 169 163 155 162 158 163 156 166 158 150 153 155 169 176 171 159 168 175 202 229 234 208 192 189 192 195 196 195 211 205 207
263 263 314 332 33 211 254 320 186 254 141 127 160 125 86 127 165 165 164 167 156 164 161 164 162 167 153 154 149 161 178 178 181 149 169 181 194 220 213 188 193 202 178 188 185 158 243 203 197
293 198 177 283 266 237 351 334 295 353 96 43 92 150 159 141 149 164 166 168 167 165 163 165 164 161 157 161 158 173 175 155 163 149 165 188 190 206 192 185 186 191 188 185 194 214 222 193 200
289 340 259 319 295 9 154 186 322 28 41 85 70 47 16 24 158 157 153 170 170 168 157 161 161 166 163 168 158 170 151 147 160 168 175 189 200 227 181 181 178 191 193 185 185 191 198 194 256
185 228 1 346 347 317 320 343 240 61 39 61 45 40 17 9 20 99 112 239 171 170 156 156 160 163 166 159 163 163 157 161 164 182 197 201 208 256 182 175 173 192 185 190 200 177 197 202 245
338 313 257 254 125 162 300 293 143 67 55 60 40 22 8 354 6 54 203 173 158 154 150 155 158 160 162 156 159 158 161 168 163 186 216 202 209 271 185 172 175 191 186 191 187 194 202 228 245
307 344 355 132 277 201 185 308 95 67 47 55 55 0 336 350 359 34 24 97 354 148 147 158 160 163 167 160 158 163 162 168 176 192 213 199 181 194 160 151 153 190 195 195 191 203 219 206 217